TimeCDT,TemperatureF,Dew PointF,Humidity,Sea Level PressureIn,VisibilityMPH,Wind Direction,Wind SpeedMPH,Gust SpeedMPH,PrecipitationIn,Events,Conditions,WindDirDegrees,DateUTC
12:53 AM,61.0,55.9,83,30.17,10.0,Calm,Calm,-,N/A,,Clear,0,2013-05-26 05:53:00
1:53 AM,61.0,57.0,87,30.15,10.0,Calm,Calm,-,N/A,,Clear,0,2013-05-26 06:53:00
2:53 AM,59.0,55.0,87,30.14,10.0,Calm,Calm,-,N/A,,Clear,0,2013-05-26 07:53:00
3:53 AM,59.0,55.0,87,30.14,10.0,Calm,Calm,-,N/A,,Clear,0,2013-05-26 08:53:00
4:53 AM,59.0,54.0,83,30.15,10.0,Calm,Calm,-,N/A,,Clear,0,2013-05-26 09:53:00
5:53 AM,59.0,55.0,87,30.15,10.0,Calm,Calm,-,N/A,,Clear,0,2013-05-26 10:53:00
6:53 AM,61.0,55.9,83,30.16,10.0,NNE,3.5,-,N/A,,Clear,30,2013-05-26 11:53:00
7:53 AM,66.0,57.0,73,30.16,10.0,Calm,Calm,-,N/A,,Clear,0,2013-05-26 12:53:00
8:53 AM,71.1,59.0,66,30.17,10.0,South,3.5,-,N/A,,Mostly Cloudy,170,2013-05-26 13:53:00
9:53 AM,75.0,60.1,60,30.17,10.0,SSW,6.9,-,N/A,,Partly Cloudy,210,2013-05-26 14:53:00
10:53 AM,78.1,61.0,56,30.17,10.0,SSW,5.8,-,N/A,,Clear,210,2013-05-26 15:53:00
11:53 AM,80.1,60.1,50,30.17,10.0,SW,8.1,-,N/A,,Clear,220,2013-05-26 16:53:00
12:53 PM,81.0,59.0,47,30.15,10.0,SSW,8.1,-,N/A,,Clear,210,2013-05-26 17:53:00
1:53 PM,82.9,62.1,49,30.13,10.0,SSW,10.4,18.4,N/A,,Clear,200,2013-05-26 18:53:00
2:53 PM,82.9,61.0,47,30.11,10.0,South,9.2,-,N/A,,Clear,190,2013-05-26 19:53:00
3:53 PM,84.0,61.0,46,30.09,10.0,South,8.1,-,N/A,,Clear,190,2013-05-26 20:53:00
4:53 PM,84.0,62.1,47,30.06,10.0,South,10.4,-,N/A,,Clear,170,2013-05-26 21:53:00
5:53 PM,82.9,59.0,44,30.05,10.0,South,10.4,-,N/A,,Clear,190,2013-05-26 22:53:00
6:53 PM,82.0,59.0,45,30.04,10.0,South,8.1,-,N/A,,Clear,180,2013-05-26 23:53:00
7:53 PM,79.0,59.0,50,30.04,10.0,South,5.8,-,N/A,,Clear,170,2013-05-27 00:53:00
8:53 PM,73.9,59.0,59,30.04,10.0,SSE,4.6,-,N/A,,Clear,160,2013-05-27 01:53:00
9:53 PM,73.0,57.0,57,30.06,10.0,South,4.6,-,N/A,,Clear,170,2013-05-27 02:53:00
10:53 PM,71.1,55.0,57,30.05,10.0,SSE,5.8,-,N/A,,Clear,160,2013-05-27 03:53:00
11:53 PM,72.0,53.1,51,30.05,10.0,South,5.8,-,N/A,,Clear,180,2013-05-27 04:53:00